FW0418 Weather Reports


time (UTC)temp
C
wind
direction
speed
KPH
gust
KPH
rain 1hr
cm
rain 24hr
cm
rain mn
cm
humidity
%
barometer
mb
20260505100009 13 227 0.0 3.2 0.00 0.00 0.00 79 1009.9
20260505100006 13 227 0.0 3.2 0.00 0.00 0.00 79 1010.1
20260505094504 13 229 0.0 1.6 0.00 0.00 0.00 79 1010.0
20260505093004 13 227 0.0 3.2 0.00 0.00 0.00 79 1009.9
20260505091504 13 231 0.0 3.2 0.00 0.00 0.00 79 1009.9
20260505091502 13 231 0.0 3.2 0.00 0.00 0.00 79 1009.7
20260505090007 13 231 0.0 3.2 0.00 0.00 0.00 79 1009.9
20260505090005 13 231 0.0 3.2 0.00 0.00 0.00 79 1009.7
20260505084504 13 226 1.6 3.2 0.00 0.00 0.00 79 1009.8
20260505083007 13 225 0.0 3.2 0.00 0.00 0.00 78 1009.7
20260505083005 13 225 0.0 3.2 0.00 0.00 0.00 78 1009.9
20260505081506 14 230 0.0 4.8 0.00 0.00 0.00 78 1009.6
20260505080007 13 231 0.0 1.6 0.00 0.00 0.00 79 1009.8
20260505080005 13 231 0.0 1.6 0.00 0.00 0.00 79 1009.6
20260505074504 13 230 0.0 1.6 0.00 0.00 0.00 79 1009.8
20260505073003 13 226 0.0 1.6 0.00 0.00 0.00 80 1009.5
20260505071508 13 224 0.0 3.2 0.00 0.00 0.00 80 1009.6
20260505071505 13 224 0.0 3.2 0.00 0.00 0.00 80 1009.8
20260505070006 13 225 0.0 3.2 0.00 0.00 0.00 80 1009.9
20260505064505 14 224 1.6 4.8 0.00 0.00 0.00 77 1009.9
20260505063008 13 226 0.0 3.2 0.00 0.00 0.00 76 1009.8
20260505061508 13 224 0.0 1.6 0.00 0.00 0.00 76 1009.8
20260505061503 13 224 0.0 1.6 0.00 0.00 0.00 76 1010.0
20260505060006 13 224 0.0 1.6 0.00 0.00 0.00 75 1010.0
20260505060004 13 224 0.0 1.6 0.00 0.00 0.00 75 1009.9
20260505054504 13 225 0.0 1.6 0.00 0.00 0.00 75 1010.1
20260505053005 13 225 0.0 1.6 0.00 0.00 0.00 74 1010.0
20260505053003 13 225 0.0 1.6 0.00 0.00 0.00 74 1009.9
20260505051506 13 225 0.0 1.6 0.00 0.00 0.00 73 1009.9
20260505051504 13 225 0.0 1.6 0.00 0.00 0.00 73 1010.1
20260505041504 14 225 0.0 1.6 0.00 0.00 0.00 70 1009.7
20260505040008 14 225 0.0 3.2 0.00 0.00 0.00 69 1009.8
20260505034505 14 224 0.0 3.2 0.00 0.00 0.00 69 1009.6
20260505034503 14 224 0.0 3.2 0.00 0.00 0.00 69 1009.4
20260505033004 15 224 0.0 3.2 0.00 0.00 0.00 68 1009.4
20260505031504 15 227 0.0 3.2 0.00 0.00 0.00 67 1009.9
20260505031502 15 227 0.0 3.2 0.00 0.00 0.00 67 1009.7
20260505030015 15 226 0.0 1.6 0.00 0.00 0.00 67 1009.7
20260505030005 15 226 0.0 1.6 0.00 0.00 0.00 67 1009.8
20260505024505 15 224 0.0 3.2 0.00 0.00 0.00 67 1009.8
20260505024503 15 224 0.0 3.2 0.00 0.00 0.00 67 1009.6
20260505023004 15 225 0.0 3.2 0.00 0.00 0.00 66 1009.7
20260505021504 15 225 0.0 3.2 0.00 0.00 0.00 65 1009.8
20260505020007 15 227 0.0 3.2 0.00 0.00 0.00 65 1010.0
20260505020005 15 227 0.0 3.2 0.00 0.00 0.00 65 1009.8
20260505014504 15 226 0.0 1.6 0.00 0.00 0.00 64 1010.0
20260505013005 15 226 0.0 1.6 0.00 0.00 0.00 62 1009.9
20260505013003 15 226 0.0 1.6 0.00 0.00 0.00 62 1009.8
20260505011506 16 227 0.0 0.0 0.00 0.00 0.00 61 1009.5
20260505010005 16 227 0.0 0.0 0.00 0.00 0.00 60 1009.5
20260505004504 16 229 0.0 1.6 0.00 0.00 0.00 58 1009.4
20260505003005 17 227 0.0 1.6 0.00 0.00 0.00 57 1009.3
20260505003003 17 227 0.0 1.6 0.00 0.00 0.00 57 1009.1
20260505001504 17 227 0.0 1.6 0.00 0.00 0.00 56 1009.2
20260505000006 17 227 0.0 1.6 0.00 0.00 0.00 56 1009.2
20260505000004 17 227 0.0 1.6 0.00 0.00 0.00 56 1009.0
20260504234504 18 226 0.0 1.6 0.00 0.00 0.00 55 1009.1
20260504233005 18 229 0.0 3.2 0.00 0.00 0.00 54 1008.9
20260504231504 18 228 0.0 3.2 0.00 0.00 0.00 54 1009.2
20260504231502 18 228 0.0 3.2 0.00 0.00 0.00 54 1009.0
20260504230005 20 225 0.0 1.6 0.00 0.00 0.00 52 1009.1
20260504224504 20 238 0.0 1.6 0.00 0.00 0.00 51 1009.2
20260504224502 20 238 0.0 1.6 0.00 0.00 0.00 51 1009.1
20260504223004 20 230 0.0 4.8 0.00 0.00 0.00 49 1009.2
20260504221503 21 238 0.0 1.6 0.00 0.00 0.00 48 1009.2
20260504220007 21 236 0.0 6.4 0.00 0.00 0.00 46 1009.2
20260504220005 21 236 0.0 6.4 0.00 0.00 0.00 46 1009.1
20260504214505 21 235 0.0 8.0 0.00 0.00 0.00 46 1009.2
20260504214503 21 235 1.6 8.0 0.00 0.00 0.00 46 1009.3
20260504213004 21 232 1.6 9.7 0.00 0.00 0.00 44 1009.3
20260504211503 22 222 0.0 6.4 0.00 0.00 0.00 45 1009.3
20260504210005 22 233 0.0 6.4 0.00 0.00 0.00 44 1009.3
20260504204504 23 224 0.0 4.8 0.00 0.00 0.00 43 1009.3
20260504203009 23 227 0.0 6.4 0.00 0.00 0.00 44 1009.2
20260504203005 23 227 0.0 6.4 0.00 0.00 0.00 44 1009.3
20260504201502 23 238 1.6 8.0 0.00 0.00 0.00 43 1009.4
20260504200005 23 256 0.0 4.8 0.00 0.00 0.00 42 1009.8
20260504194503 22 236 0.0 9.7 0.00 0.00 0.00 43 1010.0
20260504193005 22 246 1.6 8.0 0.00 0.00 0.00 43 1010.2
20260504193002 22 246 3.2 8.0 0.00 0.00 0.00 43 1010.2
20260504191506 22 240 0.0 8.0 0.00 0.00 0.00 45 1010.4
20260504191504 22 240 1.6 8.0 0.00 0.00 0.00 45 1010.4
20260504190008 22 232 1.6 4.8 0.00 0.00 0.00 43 1010.6
20260504190005 22 232 0.0 4.8 0.00 0.00 0.00 43 1010.6
20260504184511 22 237 0.0 8.0 0.00 0.00 0.00 43 1010.7
20260504184504 22 237 1.6 8.0 0.00 0.00 0.00 43 1010.7
20260504183006 22 235 1.6 6.4 0.00 0.00 0.00 44 1010.7
20260504183003 22 235 0.0 6.4 0.00 0.00 0.00 44 1010.7
20260504181503 22 233 1.6 8.0 0.00 0.00 0.00 42 1010.9
20260504180006 22 235 1.6 4.8 0.00 0.00 0.00 43 1011.3
20260504174503 21 227 0.0 6.4 0.00 0.00 0.00 45 1011.5
20260504173006 21 234 1.6 6.4 0.00 0.00 0.00 43 1011.6
20260504173004 21 234 3.2 6.4 0.00 0.00 0.00 43 1011.7
20260504171505 21 233 1.6 8.0 0.00 0.00 0.00 44 1011.8
20260504171503 21 233 0.0 8.0 0.00 0.00 0.00 44 1011.9